METOP-B

Last updated on Tue Sep 16 2025 00:02:22 GMT+0000 (Coordinated Universal Time)

1 38771U 12049A 25258.59073101 .00000084 00000+0 58222-4 0 9994 2 38771 98.6197 310.0469 0002268 69.6962 290.4459 14.21460293674256
UTC large
Height (km)
Speed (km/s)
/
Latitude / Longitude
Inclination (degrees)
Orbital Period (minutes)
Azimuth
Elevation
Range (km)
Doppler Factor

Next 0 passes for location: London (51.5072 / 0.1276)

Sorry there are no passes over London.